Regional Weather Roundup
Issued by NWS

Home | Current Version | Previous Version | Text Only | Print | Product List | Glossary On
Versions: 1 2 3 4 5 6 7 8 9 10 11 12 13 14 15 16 17 18 19 20 21 22 23 24 25 26 27 28 29 30 31 32 33 34 35 36 37 38 39 40 41 42 43 44 45 46 47 48 49 50
000
ASUS45 KREV 060310
RWRNV
NEVADA REGIONAL WEATHER ROUNDUP
NATIONAL WEATHER SERVICE RENO NV
800 PM PDT SUN JUL 05 2015

NOTE: "FAIR" INDICATES FEW OR NO CLOUDS BELOW 12,000 FEET WITH NO
SIGNIFICANT WEATHER AND/OR OBSTRUCTIONS TO VISIBILITY.

NVZ001-003-004-060400-
WESTERN NEVADA

CITY           SKY/WX    TMP DP  RH WIND       PRES   REMARKS
RENO           MOCLDY    83  50  31 SE16G23   30.04R
CARSON CITY    FAIR      84  39  20 NE12G18   30.06S
MINDEN         FAIR      82  48  30 SE7       30.07R
SLIDE MTN        N/A     59  41  51 W7          N/A
PYRAMID LAKE     N/A     86 N/A N/A S3          N/A
FALLON         CLOUDY    82  43  25 S14       30.03R
LOVELOCK       MOCLDY    85  49  28 NE21      30.01R
HAWTHORNE      CLEAR     79  43  27 SE9G16    30.09R
$$

NVZ002-CAZ072-073-060400-
NORTHERN AND CENTRAL SIERRA

CITY           SKY/WX    TMP DP  RH WIND       PRES   REMARKS
S. LAKE TAHOE  PTCLDY    75  49  39 SE6       30.19R
TRUCKEE        CLEAR     73  48  40 W7        30.17S
SQUAW VLY 8000 NOT AVBL
SUSANVILLE     CLEAR     84  39  20 SW8       30.04R
BLUE CANYON    CLEAR     73  51  46 W6        30.16S
MAMMOTH LAKES  FAIR      66  37  34 CALM      30.29R
BRIDGEPORT     FAIR      71  42  35 VRB3      30.21R
$$

NVZ030-031-036-060400-
NORTHERN NEVADA

CITY           SKY/WX    TMP DP  RH WIND       PRES   REMARKS
ELKO           CLEAR     79  40  24 W13       30.08R
WINNEMUCCA     NOT AVBL
WENDOVER       CLEAR     81  54  39 N15       30.01R
$$

NVZ035-037-060400-
CENTRAL NEVADA

CITY           SKY/WX    TMP DP  RH WIND       PRES   REMARKS
ELY            PTCLDY    79  33  19 N12       30.14R
EUREKA           N/A     78  37  22 NW15      30.14R
$$

NVZ013-014-060400-
SOUTH CENTRAL NEVADA

CITY           SKY/WX    TMP DP  RH WIND       PRES   REMARKS
TONOPAH        CLOUDY    75  38  26 W3        30.15F
$$

NVZ017-020-022-060400-
SOUTHERN NEVADA

CITY           SKY/WX    TMP DP  RH WIND       PRES   REMARKS
LAS VEGAS      CLOUDY    91  49  23 S8        29.83S
N. LAS VEGAS   CLOUDY    91  48  22 E7        29.86S
NELLIS AFB     MOCLDY    93  49  22 SW2       29.83S
HENDERSON      CLOUDY    87  52  29 E6        29.91S
MERCURY        HVY RAIN  73  57  57 VRB6G21   30.01R
$$


USA.gov is the U.S. government's official web portal to all federal, state and local government web resources and services.